User: anonymous   Login
Location: Caltech
(34.1382°N, 118.1253°W)
Time: 10:45:11
(UTC-07:00)
Language:

CZ-2C R/B - Orbit

View from above orbital plane
View from above orbital plane
View from above satellite
View from above satellite

Ground track
Ground track

The orbit data is extracted from the following two-line orbital elements,

1 28480U 04046B   15242.43225954  .00000025  00000-0  25205-4 0  9999
2 28480 098.1509 011.1282 0142248 003.8836 035.9023 14.25525095560663
Epoch (UTC): 30 August 2015 10:22:27
Eccentricity: 0.0142248
inclination: 98.1509°
perigee height: 704 km
apogee height: 909 km
right ascension of ascending node: 11.1282°
argument of perigee: 3.8836°
revolutions per day: 14.25525095
mean anomaly at epoch: 35.9023°
orbit number at epoch: 56066

The dashed part of the orbit path shows where the satellite is in the earth's shadow,  

DLR